Flag for Canada Weather past 2 weeks in Sault Ste. Marie, Ontario, Canada

Now
25 °F

Snow flurries. Mostly cloudy.


Feels Like: 11 °F
Forecast: 15 / 28 °F
Wind: 17 mph from West

Location: Sault Ste Marie

Current Time: Dec 28, 2014 at 2:35:17 PM

Latest Report: Dec 28, 2014 at 1:50 PM


Visibility: 1 mi

Pressure: 30.01 "Hg

Humidity: 74%

Dew point: 18 °F

Location of Sault Ste. MarieLocation

Historic Weather in Sault Ste. Marie — Graph

°F

Sault Ste. Marie temperature yesterday

Maximum temperature yesterday: 34 °F (at 9:48 AM)
Minimum temperature yesterday: 30 °F (at 9:00 PM)
Average temperature yesterday: 32 °F

Past Weeks' High & Low Weather Summary

 TemperatureHumidityPressure
High39 °F (Dec 14, 3:00 PM)100% (Dec 13, 4:00 PM)30.36 "Hg (Dec 13, 4:00 PM)
Low1 °F (Dec 19, 3:00 AM)49% (Dec 18, 12:00 PM)29.28 "Hg (Dec 25, 12:00 AM)
Average29 °F92%29.99 "Hg
* Reported Dec 13 1:00 PM — Dec 28 1:00 PM, Sault Ste. Marie, Weather by CustomWeather, © 2014

Note: Actual official high and low records may vary slightly from our data, if they occured in-between our weather recording intervals... More about our weather records

Advertising

Sault Ste. Marie weather history for previous 24 hours

 ConditionsComfort  
Time TempWeatherWind HumidityBarometerVisibility
1:00 PM
Dec 28
25 °FSnow flurries. Mostly cloudy.18 mph80%30.00 "Hg8 mi
12:00 PM27 °FSnow flurries. Mostly cloudy.16 mph86%30.00 "Hg0 mi
11:00 AM25 °FSnow flurries. Mostly cloudy.17 mph86%30.00 "Hg3 mi
10:45 AM25 °FSnow flurries. Cloudy.17 mph86%30.00 "Hg3 mi
10:00 AM25 °FPartly sunny.10 mph80%29.99 "Hg15 mi
9:00 AM23 °FBroken clouds.10 mph86%29.98 "Hg15 mi
8:00 AM25 °FMostly cloudy.12 mph80%29.98 "Hg15 mi
7:00 AM27 °FOvercast.16 mph74%29.96 "Hg15 mi
6:00 AM27 °FPartly cloudy.14 mph80%29.95 "Hg15 mi
5:00 AM27 °FPartly cloudy.18 mph80%29.95 "Hg15 mi
4:00 AM28 °FPassing clouds.20 mph74%29.94 "Hg15 mi
3:00 AM28 °FSnow flurries. Partly cloudy.22 mph69%29.93 "Hg12 mi
2:00 AM30 °FSnow flurries. Partly cloudy.18 mph75%29.92 "Hg12 mi
1:51 AM30 °FSnow flurries. Passing clouds.15 mph80%29.92 "Hg12 mi
1:00 AM30 °FPassing clouds.22 mph80%29.92 "Hg15 mi
12:00 AM30 °FPassing clouds.21 mph75%29.92 "Hg15 mi
11:00 PM
Dec 27
30 °FPassing clouds.24 mph75%29.91 "Hg15 mi
10:00 PM30 °FPassing clouds.29 mph69%29.90 "Hg15 mi
9:00 PM30 °FPassing clouds.29 mph75%29.89 "Hg15 mi
8:00 PM32 °FPassing clouds.23 mph80%29.85 "Hg15 mi
7:00 PM34 °FPassing clouds.22 mph81%29.83 "Hg15 mi
6:00 PM32 °FLight snow. Mostly cloudy.25 mph93%29.80 "Hg6 mi
5:00 PM34 °FLight snow. Fog.22 mph87%29.76 "Hg4 mi
4:00 PM34 °FLight snow. Fog.16 mph93%29.73 "Hg6 mi
3:03 PM34 °FLight rain. Fog.7 mph100%29.69 "Hg3 mi
3:00 PM34 °FLight rain. Fog.5 mph100%29.68 "Hg2 mi
2:00 PM32 °FLight snow. Ice fog.2 mph100%29.71 "Hg3 mi
Weather by CustomWeather, © 2014

See weather overviewHow to use our weather pages